This demonstration page uses our WeatherBlox Daily Observations layout. Learn more.

38.88101, -77.10428

Hourly Observations for February 25, 2018

Temp ( °F °C ) Dew Point ( °F °C ) Humidity (%) Winds ( mph kmh ) Pressure ( in mb ) Visibility ( mi km ) Precip ( " mm )
12:52 am 00:52 Cloudy with Light Rain 49 9.4 48 8.9 97 97 E 7 11 30.1 1019 8 12.87472 0.01 0.254
1:38 am 01:38 Cloudy with Light Rain 49 9.4 47 8.3 93 93 E 5 7 30.09 1019 10 16.0934 0 0.0254
1:52 am 01:52 Cloudy with Light Rain 49 9.4 47 8.3 93 93 E 6 9 30.07 1018 10 16.0934 0 0.0254
2:35 am 02:35 Cloudy 49 9.4 47 8.3 93 93 ESE 6 9 30.06 1018 9 14.48406 0 0.0254
2:52 am 02:52 Cloudy 49 9.4 47 8.3 93 93 ESE 6 9 30.05 1018 8 12.87472 0 0.0254
3:17 am 03:17 Cloudy 49 9.4 47 8.3 93 93 E 3 6 30.06 1018 7 11.26538 0 0
3:52 am 03:52 Cloudy with Mist and Fog 48 8.9 47 8.3 96 96 ESE 5 7 30.04 1017 6 9.65604 0 0
4:52 am 04:52 Cloudy with Mist and Fog 48 8.9 47 8.3 96 96 E 7 11 30.01 1016 4 6.43736 0 0
5:15 am 05:15 Cloudy with Mist and Fog 48 8.9 47 8.3 96 96 E 8 13 30 1016 4 6.43736 0 0
5:44 am 05:44 Cloudy with Mist and Fog 48 8.9 47 8.3 96 96 ESE 3 6 30 1016 2.5 4.02335 0 0
5:52 am 05:52 Cloudy with Mist and Fog 48 8.9 47 8.3 96 96 E 5 7 29.99 1016 2.5 4.02335 0 0
6:30 am 06:30 Cloudy with Mist and Fog 48 8.9 47 8.3 96 96 ESE 7 11 29.97 1015 1.5 2.41401 0 0
6:52 am 06:52 Cloudy with Light Rain 48 8.9 47 8.3 96 96 ESE 5 7 29.97 1015 1.25 2.011675 0 0.0254
7:08 am 07:08 Cloudy with Light Rain 48 8.9 48 8.9 100 100 E 5 7 29.97 1015 2.5 4.02335 0 0.0254
7:18 am 07:18 Cloudy with Light Rain 48 8.9 48 8.9 100 100 E 5 7 29.97 1015 1.75 2.816345 0 0.0254
7:52 am 07:52 Cloudy with Light Rain 48 8.9 48 8.9 100 100 ESE 3 6 29.98 1015 1.5 2.41401 0 0.0254
8:27 am 08:27 Cloudy with Rain 48 8.9 47 8.3 96 96 NW 13 20 30.06 1018 2 3.21868 0.03 0.762
8:32 am 08:32 Cloudy with Light Rain 48 8.9 48 8.9 100 100 NW 9 15 30.06 1018 3 4.82802 0.04 1.016
8:38 am 08:38 Cloudy with Rain 49 9.4 48 8.9 97 97 NW 7 11 30.03 1017 4 6.43736 0.04 1.016
8:45 am 08:45 Cloudy with Heavy Rain 49 9.4 48 8.9 97 97 VRB 3 6 30.03 1017 2.5 4.02335 0.07 1.778
8:52 am 08:52 Cloudy with Rain 49 9.4 48 8.9 97 97 NNE 5 7 30.02 1017 2.5 4.02335 0.11 2.794
8:54 am 08:54 Cloudy with Rain 49 9.4 48 8.9 97 97 NNE 5 7 30 1016 3 4.82802 0 0.0254
9:02 am 09:02 Cloudy with Light Rain 49 9.4 48 8.9 97 97 N 3 6 30.03 1017 5 8.0467 0.02 0.508
9:52 am 09:52 Cloudy with Light Rain 49 9.4 48 8.9 97 97 Calm 30 1016 10 16.0934 0.03 0.762
10:26 am 10:26 Cloudy with Light Rain 50 10 48 8.9 93 93 Calm 30 1016 10 16.0934 0 0.0254
10:52 am 10:52 Cloudy with Light Rain 50 10 48 8.9 93 93 S 6 9 29.97 1015 10 16.0934 0.01 0.254
11:15 am 11:15 Cloudy with Light Rain 50 10 48 8.9 93 93 SE 8 13 29.94 1014 10 16.0934 0 0.0254
11:46 am 11:46 Cloudy with Light Rain 50 10 48 9 94 94 Calm 29.94 1014 10 16.0934 0 0.0254
11:52 am 11:52 Cloudy with Light Rain 50 10 49 9.4 96 96 Calm 29.93 1014 10 16.0934 0 0.0254
11:57 am 11:57 Cloudy with Light Rain 51 10.6 49 9.4 92 92 Calm 29.94 1014 10 16.0934 0 0.0254
12:02 pm 12:02 Cloudy with Light Rain 51 10.6 49 9.4 92 92 Calm 29.94 1014 10 16.0934 0 0.0254
12:07 pm 12:07 Cloudy with Light Rain 51 10.6 49 9.4 92 92 Calm 29.94 1014 10 16.0934 0 0.0254
12:52 pm 12:52 Cloudy 51 10.6 49 9.4 92 92 W 7 11 29.98 1015 10 16.0934 0.01 0.254
12:55 pm 12:55 Cloudy 51 10.6 49 9.4 92 92 VRB 7 11 29.97 1015 10 16.0934 0 0
1:24 pm 13:24 Cloudy 52 11.1 50 10 93 93 Calm 29.94 1014 10 16.0934 0 0.0254
1:52 pm 13:52 Cloudy 52 11.1 50 10 93 93 Calm 29.97 1015 10 16.0934 0 0.0254
2:52 pm 14:52 Cloudy 53 11.7 51 10.6 93 93 Calm 29.98 1015 10 16.0934 0 0
3:52 pm 15:52 Cloudy 52 11.1 51 10.6 97 97 SSE 6 9 29.96 1015 9 14.48406 0 0
4:08 pm 16:08 Cloudy 52 11.1 51 10.6 97 97 Calm 29.97 1015 10 16.0934 0 0
4:31 pm 16:31 Cloudy 53 11.7 52 11.1 96 96 S 3 6 29.97 1015 10 16.0934 0 0
4:52 pm 16:52 Cloudy 52 11.1 51 10.6 97 97 S 7 11 29.95 1014 9 14.48406 0 0
5:52 pm 17:52 Cloudy 53 11.7 52 11.1 96 96 SSE 6 9 29.96 1015 7 11.26538 0 0
6:52 pm 18:52 Cloudy 53 11.7 51 10.6 93 93 SSE 3 6 29.99 1016 7 11.26538 0 0
7:06 pm 19:06 Cloudy with Mist and Fog 52 11.1 52 11.1 100 100 Calm 30 1016 6 9.65604 0 0
7:52 pm 19:52 Cloudy 53 11.7 52 11.1 96 96 E 3 6 30.01 1016 9 14.48406 0 0
8:12 pm 20:12 Cloudy 52 11.1 52 11.1 100 100 Calm 30 1016 7 11.26538 0 0
8:52 pm 20:52 Cloudy 52 11.1 52 11.1 100 100 SE 6 9 30.01 1016 8 12.87472 0 0
9:52 pm 21:52 Cloudy with Mist and Fog 52 11.1 52 11.1 100 100 Calm 30.02 1017 5 8.0467 0 0
10:10 pm 22:10 Cloudy with Fog 51 10.6 50 10 96 96 Calm 30.03 1017 8 12.87472 0 0
10:52 pm 22:52 Cloudy 51 10.6 51 10.6 100 100 SSW 3 6 30.04 1017 8 12.87472 0 0
11:30 pm 23:30 Cloudy with Mist and Fog 51 10.6 51 10.6 100 100 S 3 6 30.06 1018 4 6.43736 0 0
11:52 pm 23:52 Cloudy with Mist and Fog 51 10.6 51 10.6 100 100 SSE 3 6 30.04 1017 4 6.43736 0 0

Powered by AerisWeather